Regional Weather Roundup
Issued by NWS

Home | Current Version | Previous Version | Text Only | Print | Product List | Glossary Off
Versions: 1 2 3 4 5 6 7 8 9 10 11 12 13 14 15 16 17 18 19 20 21 22 23 24 25 26 27 28 29 30 31 32 33 34 35 36 37 38 39 40 41 42 43 44 45 46 47 48 49 50

000
ASUS43 KBIS 070010
RWRND

NORTH DAKOTA REGIONAL WEATHER ROUNDUP
NATIONAL WEATHER SERVICE BISMARCK ND
600 PM CST FRI MAR 06 2015

NOTE: "FAIR" INDICATES FEW OR NO CLOUDS BELOW 12,000 FEET WITH NO
SIGNIFICANT WEATHER AND/OR OBSTRUCTIONS TO VISIBILITY.


NDZ001>003-009>011-017-070100-
NORTHWEST NORTH DAKOTA

CITY           SKY/WX    TMP DP  RH WIND       PRES   REMARKS
WILLISTON      CLOUDY    44  31  60 NW14      30.00R
6HR MIN TEMP:  37; 6HR MAX TEMP:  49; 6HR PCP: TRACE;

MINOT          MOCLDY    41  29  62 W17       29.88R
MINOT AFB      PTCLDY    38  35  86 W16       29.86R
$$

NDZ018>021-031>035-040>046-070100-
SOUTHWEST NORTH DAKOTA

CITY           SKY/WX    TMP DP  RH WIND       PRES   REMARKS
BISMARCK       MOCLDY    45  25  45 SW6       29.96S
6HR MIN TEMP:  36; 6HR MAX TEMP:  48;

DICKINSON      PTCLDY    50  25  37 NW10      29.97S
GARRISON         N/A     42  30  62 W15       29.93R
6HR MIN TEMP:  31; 6HR MAX TEMP:  43;

HETTINGER ARPT PTCLDY    51  22  31 NW16      30.01R
$$

NDZ004>008-012>016-024-026-027-054-070100-
NORTHEAST NORTH DAKOTA

CITY           SKY/WX    TMP DP  RH WIND       PRES   REMARKS
GRAND FORKS    CLOUDY    36  22  56 SW9       29.94F
GRND FRKS AFB  CLOUDY    37  21  53 SW10      29.92F
DEVILS LAKE    CLOUDY    34  25  69 SW12      29.89F
$$

NDZ022-023-025-028>030-036>039-047>053-070100-
SOUTHEAST NORTH DAKOTA

CITY           SKY/WX    TMP DP  RH WIND       PRES   REMARKS
FARGO          MOCLDY    37  23  56 SW10      30.00F
6HR MIN TEMP:  32; 6HR MAX TEMP:  40;

JAMESTOWN      MOCLDY    35  22  58 S9        29.93F
$$




USA.gov is the U.S. government's official web portal to all federal, state and local government web resources and services.